Time,TemperatureF,DewpointF,PressureIn,WindDirection,WindDirectionDegrees,WindSpeedMPH,WindSpeedGustMPH,Humidity,HourlyPrecipIn,Conditions,Clouds,dailyrainin,SoftwareType,DateUTC
2013-01-08 00:00:00,47.0,40.8,30.36,SE,133,0.0,0.0,79,0.00,,,0.00,Wunderground v.1.15,2013-01-08 05:00:00,
2013-01-08 00:02:00,47.0,40.8,30.36,SE,133,0.0,0.0,79,0.00,,,0.00,Wunderground v.1.15,2013-01-08 05:02:00,
2013-01-08 00:05:00,47.0,40.8,30.36,WSW,239,0.0,0.0,79,0.00,,,0.00,Wunderground v.1.15,2013-01-08 05:05:00,
2013-01-08 00:10:00,46.8,40.6,30.36,South,185,0.0,0.0,79,0.00,,,0.00,Wunderground v.1.15,2013-01-08 05:10:00,
2013-01-08 00:16:00,46.8,41.0,30.36,South,185,0.0,0.0,80,0.00,,,0.00,Wunderground v.1.15,2013-01-08 05:16:00,
2013-01-08 00:21:00,46.8,41.0,30.36,South,187,0.0,0.0,80,0.00,,,0.00,Wunderground v.1.15,2013-01-08 05:21:00,
2013-01-08 00:27:00,46.7,40.9,30.36,South,187,0.0,1.0,80,0.00,,,0.00,Wunderground v.1.15,2013-01-08 05:27:00,
2013-01-08 00:33:00,46.5,40.7,30.36,South,187,0.0,0.0,80,0.00,,,0.00,Wunderground v.1.15,2013-01-08 05:33:00,
2013-01-08 00:39:00,46.4,40.9,30.36,South,187,0.0,0.0,81,0.00,,,0.00,Wunderground v.1.15,2013-01-08 05:39:00,
2013-01-08 00:44:00,46.4,40.9,30.36,South,173,0.0,1.0,81,0.00,,,0.00,Wunderground v.1.15,2013-01-08 05:44:00,
2013-01-08 00:49:00,46.2,40.7,30.35,South,173,0.0,1.0,81,0.00,,,0.00,Wunderground v.1.15,2013-01-08 05:49:00,
2013-01-08 00:55:00,46.2,41.0,30.35,WNW,284,0.0,0.0,82,0.00,,,0.00,Wunderground v.1.15,2013-01-08 05:55:00,
2013-01-08 01:00:00,46.1,40.9,30.35,SE,126,1.0,1.0,82,0.00,,,0.00,Wunderground v.1.15,2013-01-08 06:00:00,
2013-01-08 01:06:00,46.1,40.9,30.35,SE,137,0.0,1.0,82,0.00,,,0.00,Wunderground v.1.15,2013-01-08 06:06:00,
2013-01-08 01:12:00,46.1,40.9,30.35,SE,132,0.0,0.0,82,0.00,,,0.00,Wunderground v.1.15,2013-01-08 06:12:00,
2013-01-08 01:17:00,46.0,40.8,30.35,SE,142,2.0,2.0,82,0.00,,,0.00,Wunderground v.1.15,2013-01-08 06:17:00,
2013-01-08 01:22:00,46.0,41.1,30.35,SE,142,0.0,0.0,83,0.00,,,0.00,Wunderground v.1.15,2013-01-08 06:22:00,
2013-01-08 01:28:00,45.8,40.9,30.35,ESE,118,0.0,0.0,83,0.00,,,0.00,Wunderground v.1.15,2013-01-08 06:28:00,
2013-01-08 01:33:00,45.8,41.2,30.35,ESE,118,0.0,1.0,84,0.00,,,0.00,Wunderground v.1.15,2013-01-08 06:33:00,
2013-01-08 01:39:00,45.8,41.2,30.35,ESE,118,0.0,1.0,84,0.00,,,0.00,Wunderground v.1.15,2013-01-08 06:39:00,
2013-01-08 01:45:00,45.7,41.1,30.35,SE,145,0.0,0.0,84,0.00,,,0.00,Wunderground v.1.15,2013-01-08 06:45:00,
2013-01-08 01:50:00,45.7,41.4,30.35,SSE,147,0.0,0.0,85,0.00,,,0.00,Wunderground v.1.15,2013-01-08 06:50:00,
2013-01-08 01:55:00,45.7,41.4,30.35,WSW,248,0.0,0.0,85,0.00,,,0.00,Wunderground v.1.15,2013-01-08 06:55:00,
2013-01-08 02:00:00,45.7,41.4,30.34,SSE,161,2.0,2.0,85,0.00,,,0.00,Wunderground v.1.15,2013-01-08 07:00:00,
2013-01-08 02:05:00,45.7,41.4,30.34,South,187,0.0,2.0,85,0.00,,,0.00,Wunderground v.1.15,2013-01-08 07:05:00,
2013-01-08 02:10:00,45.8,41.5,30.34,SE,130,1.0,1.0,85,0.00,,,0.00,Wunderground v.1.15,2013-01-08 07:10:00,
2013-01-08 02:15:00,45.8,41.5,30.34,WSW,239,3.0,3.0,85,0.00,,,0.00,Wunderground v.1.15,2013-01-08 07:15:00,
2013-01-08 02:20:00,45.8,41.5,30.34,WSW,239,0.0,0.0,85,0.00,,,0.00,Wunderground v.1.15,2013-01-08 07:20:00,
2013-01-08 02:25:00,45.7,41.8,30.34,ESE,121,0.0,2.0,86,0.00,,,0.00,Wunderground v.1.15,2013-01-08 07:25:00,
2013-01-08 02:30:00,45.7,41.8,30.34,SE,135,0.0,0.0,86,0.00,,,0.00,Wunderground v.1.15,2013-01-08 07:30:00,
2013-01-08 02:35:00,45.7,41.8,30.34,SSE,153,2.0,2.0,86,0.00,,,0.00,Wunderground v.1.15,2013-01-08 07:35:00,
2013-01-08 02:40:00,45.7,41.8,30.34,SSE,160,0.0,2.0,86,0.00,,,0.00,Wunderground v.1.15,2013-01-08 07:40:00,
2013-01-08 02:45:00,45.7,41.8,30.34,West,281,0.0,2.0,86,0.00,,,0.00,Wunderground v.1.15,2013-01-08 07:45:00,
2013-01-08 02:50:00,45.7,41.8,30.34,West,281,2.0,2.0,86,0.00,,,0.00,Wunderground v.1.15,2013-01-08 07:50:00,
2013-01-08 02:55:00,45.7,41.8,30.34,NW,307,0.0,2.0,86,0.00,,,0.00,Wunderground v.1.15,2013-01-08 07:55:00,
2013-01-08 03:01:00,45.7,41.8,30.33,SE,140,1.0,2.0,86,0.00,,,0.00,Wunderground v.1.15,2013-01-08 08:01:00,
2013-01-08 03:06:00,45.7,41.8,30.33,WNW,293,0.0,5.0,86,0.00,,,0.00,Wunderground v.1.15,2013-01-08 08:06:00,
2013-01-08 03:11:00,45.7,41.8,30.33,WSW,238,0.0,1.0,86,0.00,,,0.00,Wunderground v.1.15,2013-01-08 08:11:00,
2013-01-08 03:16:00,45.5,41.6,30.33,SE,133,0.0,3.0,86,0.00,,,0.00,Wunderground v.1.15,2013-01-08 08:16:00,
2013-01-08 03:21:00,45.5,41.6,30.33,SW,225,0.0,0.0,86,0.00,,,0.00,Wunderground v.1.15,2013-01-08 08:21:00,
2013-01-08 03:26:00,45.4,41.5,30.33,West,281,0.0,1.0,86,0.00,,,0.00,Wunderground v.1.15,2013-01-08 08:26:00,
2013-01-08 03:31:00,45.4,41.5,30.33,West,281,0.0,0.0,86,0.00,,,0.00,Wunderground v.1.15,2013-01-08 08:31:00,
2013-01-08 03:36:00,45.4,41.5,30.33,West,266,0.0,1.0,86,0.00,,,0.00,Wunderground v.1.15,2013-01-08 08:36:00,
2013-01-08 03:41:00,45.2,41.3,30.33,West,269,0.0,0.0,86,0.00,,,0.00,Wunderground v.1.15,2013-01-08 08:41:00,
2013-01-08 03:46:00,45.2,41.6,30.33,ENE,77,0.0,2.0,87,0.00,,,0.00,Wunderground v.1.15,2013-01-08 08:46:00,
2013-01-08 03:51:00,45.1,41.5,30.33,SW,225,0.0,0.0,87,0.00,,,0.00,Wunderground v.1.15,2013-01-08 08:51:00,
2013-01-08 03:56:00,45.1,41.5,30.33,SW,224,0.0,2.0,87,0.00,,,0.00,Wunderground v.1.15,2013-01-08 08:56:00,
2013-01-08 04:01:00,45.1,41.8,30.32,SE,140,2.0,3.0,88,0.00,,,0.00,Wunderground v.1.15,2013-01-08 09:01:00,
2013-01-08 04:06:00,45.1,41.8,30.32,SE,146,3.0,3.0,88,0.00,,,0.00,Wunderground v.1.15,2013-01-08 09:06:00,
2013-01-08 04:11:00,45.1,41.8,30.32,SW,224,0.0,1.0,88,0.00,,,0.00,Wunderground v.1.15,2013-01-08 09:11:00,
2013-01-08 04:16:00,45.1,41.8,30.32,NW,314,0.0,3.0,88,0.00,,,0.00,Wunderground v.1.15,2013-01-08 09:16:00,
2013-01-08 04:21:00,44.9,41.6,30.32,West,269,0.0,2.0,88,0.00,,,0.00,Wunderground v.1.15,2013-01-08 09:21:00,
2013-01-08 04:26:00,44.9,41.6,30.32,SE,126,0.0,5.0,88,0.00,,,0.00,Wunderground v.1.15,2013-01-08 09:26:00,
2013-01-08 04:31:00,44.9,41.6,30.33,SE,145,1.0,1.0,88,0.00,,,0.00,Wunderground v.1.15,2013-01-08 09:31:00,
2013-01-08 04:36:00,44.9,41.6,30.33,SE,145,0.0,1.0,88,0.00,,,0.00,Wunderground v.1.15,2013-01-08 09:36:00,
2013-01-08 04:41:00,44.9,41.6,30.33,WNW,287,0.0,0.0,88,0.00,,,0.00,Wunderground v.1.15,2013-01-08 09:41:00,
2013-01-08 04:46:00,44.9,41.6,30.32,ESE,123,0.0,2.0,88,0.00,,,0.00,Wunderground v.1.15,2013-01-08 09:46:00,
2013-01-08 04:51:00,44.9,41.6,30.32,East,91,0.0,2.0,88,0.00,,,0.00,Wunderground v.1.15,2013-01-08 09:51:00,
2013-01-08 04:56:00,44.9,41.6,30.32,WNW,283,0.0,2.0,88,0.00,,,0.00,Wunderground v.1.15,2013-01-08 09:56:00,
2013-01-08 05:01:00,44.9,41.6,30.33,SW,225,0.0,1.0,88,0.00,,,0.00,Wunderground v.1.15,2013-01-08 10:01:00,
2013-01-08 05:06:00,44.9,41.3,30.33,SE,135,0.0,3.0,87,0.00,,,0.00,Wunderground v.1.15,2013-01-08 10:06:00,
2013-01-08 05:11:00,44.9,41.3,30.33,SE,146,0.0,0.0,87,0.00,,,0.00,Wunderground v.1.15,2013-01-08 10:11:00,
2013-01-08 05:16:00,44.9,41.3,30.33,West,281,1.0,1.0,87,0.00,,,0.00,Wunderground v.1.15,2013-01-08 10:16:00,
2013-01-08 05:21:00,44.9,41.3,30.33,East,99,1.0,3.0,87,0.00,,,0.00,Wunderground v.1.15,2013-01-08 10:21:00,
2013-01-08 05:26:00,44.9,41.0,30.33,NW,307,0.0,3.0,86,0.00,,,0.00,Wunderground v.1.15,2013-01-08 10:26:00,
2013-01-08 05:31:00,44.9,41.0,30.34,NW,307,0.0,1.0,86,0.00,,,0.00,Wunderground v.1.15,2013-01-08 10:31:00,
2013-01-08 05:36:00,44.9,41.0,30.34,SW,225,0.0,1.0,86,0.00,,,0.00,Wunderground v.1.15,2013-01-08 10:36:00,
2013-01-08 05:41:00,44.9,41.0,30.34,South,190,1.0,2.0,86,0.00,,,0.00,Wunderground v.1.15,2013-01-08 10:41:00,
2013-01-08 05:46:00,44.9,41.0,30.34,SE,136,0.0,4.0,86,0.00,,,0.00,Wunderground v.1.15,2013-01-08 10:46:00,
2013-01-08 05:51:00,44.9,41.0,30.34,SSW,207,1.0,1.0,86,0.00,,,0.00,Wunderground v.1.15,2013-01-08 10:51:00,
2013-01-08 05:57:00,44.9,41.0,30.34,West,263,0.0,2.0,86,0.00,,,0.00,Wunderground v.1.15,2013-01-08 10:57:00,
2013-01-08 06:02:00,44.9,40.7,30.34,NNE,13,1.0,3.0,85,0.00,,,0.00,Wunderground v.1.15,2013-01-08 11:02:00,
2013-01-08 06:07:00,44.9,40.7,30.34,WSW,238,0.0,3.0,85,0.00,,,0.00,Wunderground v.1.15,2013-01-08 11:07:00,
2013-01-08 06:12:00,44.9,40.7,30.34,SE,128,0.0,2.0,85,0.00,,,0.00,Wunderground v.1.15,2013-01-08 11:12:00,
2013-01-08 06:17:00,44.9,40.7,30.35,NW,324,1.0,2.0,85,0.00,,,0.00,Wunderground v.1.15,2013-01-08 11:17:00,
2013-01-08 06:22:00,44.9,40.4,30.35,SW,225,0.0,2.0,84,0.00,,,0.00,Wunderground v.1.15,2013-01-08 11:22:00,
2013-01-08 06:27:00,44.9,40.4,30.35,SSE,153,1.0,3.0,84,0.00,,,0.00,Wunderground v.1.15,2013-01-08 11:27:00,
2013-01-08 06:32:00,44.9,40.4,30.34,SE,125,0.0,2.0,84,0.00,,,0.00,Wunderground v.1.15,2013-01-08 11:32:00,
2013-01-08 06:37:00,44.9,40.4,30.34,NW,311,0.0,5.0,84,0.00,,,0.00,Wunderground v.1.15,2013-01-08 11:37:00,
2013-01-08 06:42:00,44.8,40.3,30.34,NW,311,0.0,1.0,84,0.00,,,0.00,Wunderground v.1.15,2013-01-08 11:42:00,
2013-01-08 06:47:00,44.8,40.3,30.35,SE,126,1.0,3.0,84,0.00,,,0.00,Wunderground v.1.15,2013-01-08 11:47:00,
2013-01-08 06:52:00,44.8,40.0,30.35,SE,135,1.0,2.0,83,0.00,,,0.00,Wunderground v.1.15,2013-01-08 11:52:00,
2013-01-08 06:57:00,44.8,40.0,30.35,South,183,0.0,3.0,83,0.00,,,0.00,Wunderground v.1.15,2013-01-08 11:57:00,
2013-01-08 07:02:00,44.8,40.0,30.35,SSE,154,2.0,3.0,83,0.00,,,0.00,Wunderground v.1.15,2013-01-08 12:02:00,
2013-01-08 07:07:00,44.8,40.0,30.35,SE,142,0.0,3.0,83,0.00,,,0.00,Wunderground v.1.15,2013-01-08 12:07:00,
2013-01-08 07:12:00,44.6,39.8,30.35,SSE,152,0.0,2.0,83,0.00,,,0.00,Wunderground v.1.15,2013-01-08 12:12:00,
2013-01-08 07:17:00,44.6,39.8,30.35,ESE,115,0.0,2.0,83,0.00,,,0.00,Wunderground v.1.15,2013-01-08 12:17:00,
2013-01-08 07:22:00,44.6,39.8,30.35,ENE,78,0.0,1.0,83,0.00,,,0.00,Wunderground v.1.15,2013-01-08 12:22:00,
2013-01-08 07:27:00,44.6,39.8,30.35,ESE,112,0.0,2.0,83,0.00,,,0.00,Wunderground v.1.15,2013-01-08 12:27:00,
2013-01-08 07:32:00,44.6,39.8,30.36,WNW,283,0.0,1.0,83,0.00,,,0.00,Wunderground v.1.15,2013-01-08 12:32:00,
2013-01-08 07:37:00,44.6,39.8,30.36,SW,225,0.0,1.0,83,0.00,,,0.00,Wunderground v.1.15,2013-01-08 12:37:00,
2013-01-08 07:42:00,44.6,40.1,30.36,WNW,297,0.0,1.0,84,0.00,,,0.00,Wunderground v.1.15,2013-01-08 12:42:00,
2013-01-08 07:47:00,44.6,40.1,30.37,WNW,297,0.0,1.0,84,0.00,,,0.00,Wunderground v.1.15,2013-01-08 12:47:00,
2013-01-08 07:52:00,44.6,40.1,30.37,SW,215,0.0,0.0,84,0.00,,,0.00,Wunderground v.1.15,2013-01-08 12:52:00,
2013-01-08 07:57:00,44.8,40.3,30.37,SW,215,0.0,0.0,84,0.00,,,0.00,Wunderground v.1.15,2013-01-08 12:57:00,
2013-01-08 08:02:00,44.9,40.4,30.38,SW,215,0.0,0.0,84,0.00,,,0.00,Wunderground v.1.15,2013-01-08 13:02:00,
2013-01-08 08:07:00,45.1,40.6,30.38,WNW,296,0.0,2.0,84,0.00,,,0.00,Wunderground v.1.15,2013-01-08 13:07:00,
2013-01-08 08:12:00,45.2,40.3,30.38,South,171,0.0,5.0,83,0.00,,,0.00,Wunderground v.1.15,2013-01-08 13:12:00,
2013-01-08 08:17:00,45.5,40.6,30.38,SE,142,0.0,5.0,83,0.00,,,0.00,Wunderground v.1.15,2013-01-08 13:17:00,
2013-01-08 08:22:00,45.8,40.6,30.38,SE,128,0.0,3.0,82,0.00,,,0.00,Wunderground v.1.15,2013-01-08 13:22:00,
2013-01-08 08:27:00,46.1,40.9,30.38,SW,233,1.0,3.0,82,0.00,,,0.00,Wunderground v.1.15,2013-01-08 13:27:00,
2013-01-08 08:32:00,46.5,40.7,30.38,West,273,2.0,3.0,80,0.00,,,0.00,Wunderground v.1.15,2013-01-08 13:32:00,
2013-01-08 08:37:00,46.8,41.0,30.38,West,270,0.0,3.0,80,0.00,,,0.00,Wunderground v.1.15,2013-01-08 13:37:00,
2013-01-08 08:42:00,47.3,41.1,30.38,NW,310,0.0,5.0,79,0.00,,,0.00,Wunderground v.1.15,2013-01-08 13:42:00,
2013-01-08 08:47:00,47.6,41.4,30.38,SSE,150,0.0,8.0,79,0.00,,,0.00,Wunderground v.1.15,2013-01-08 13:47:00,
2013-01-08 08:52:00,47.9,41.7,30.38,SW,214,0.0,2.0,79,0.00,,,0.00,Wunderground v.1.15,2013-01-08 13:52:00,
2013-01-08 08:57:00,48.3,42.1,30.38,South,169,1.0,5.0,79,0.00,,,0.00,Wunderground v.1.15,2013-01-08 13:57:00,
2013-01-08 09:02:00,48.8,42.2,30.38,South,185,0.0,3.0,78,0.00,,,0.00,Wunderground v.1.15,2013-01-08 14:02:00,
2013-01-08 09:07:00,48.9,42.0,30.38,WNW,300,1.0,3.0,77,0.00,,,0.00,Wunderground v.1.15,2013-01-08 14:07:00,
2013-01-08 09:13:00,49.4,42.5,30.38,West,269,0.0,1.0,77,0.00,,,0.00,Wunderground v.1.15,2013-01-08 14:13:00,
2013-01-08 09:18:00,49.8,42.9,30.39,ESE,119,3.0,4.0,77,0.00,,,0.00,Wunderground v.1.15,2013-01-08 14:18:00,
2013-01-08 09:23:00,50.4,43.1,30.39,ESE,105,0.0,2.0,76,0.00,,,0.00,Wunderground v.1.15,2013-01-08 14:23:00,
2013-01-08 09:28:00,50.8,43.5,30.39,SSW,200,0.0,3.0,76,0.00,,,0.00,Wunderground v.1.15,2013-01-08 14:28:00,
2013-01-08 09:33:00,51.3,43.6,30.40,NW,308,0.0,2.0,75,0.00,,,0.00,Wunderground v.1.15,2013-01-08 14:33:00,
2013-01-08 09:38:00,51.6,44.3,30.40,SSE,160,2.0,2.0,76,0.00,,,0.00,Wunderground v.1.15,2013-01-08 14:38:00,
2013-01-08 09:43:00,52.0,44.3,30.40,SE,126,1.0,2.0,75,0.00,,,0.00,Wunderground v.1.15,2013-01-08 14:43:00,
2013-01-08 09:48:00,52.5,44.8,30.40,ENE,75,5.0,5.0,75,0.00,,,0.00,Wunderground v.1.15,2013-01-08 14:48:00,
2013-01-08 09:53:00,52.6,44.9,30.40,NNE,33,0.0,1.0,75,0.00,,,0.00,Wunderground v.1.15,2013-01-08 14:53:00,
2013-01-08 09:58:00,52.8,45.4,30.40,West,260,0.0,1.0,76,0.00,,,0.00,Wunderground v.1.15,2013-01-08 14:58:00,
2013-01-08 10:03:00,52.9,45.2,30.40,NW,308,0.0,1.0,75,0.00,,,0.00,Wunderground v.1.15,2013-01-08 15:03:00,
2013-01-08 10:08:00,53.5,46.1,30.40,SSW,205,0.0,2.0,76,0.00,,,0.00,Wunderground v.1.15,2013-01-08 15:08:00,
2013-01-08 10:13:00,54.1,46.0,30.40,SW,225,1.0,2.0,74,0.00,,,0.00,Wunderground v.1.15,2013-01-08 15:13:00,
2013-01-08 10:19:00,54.5,46.7,30.39,East,82,0.0,3.0,75,0.00,,,0.00,Wunderground v.1.15,2013-01-08 15:19:00,
2013-01-08 10:24:00,55.0,46.9,30.39,ESE,108,1.0,6.0,74,0.00,,,0.00,Wunderground v.1.15,2013-01-08 15:24:00,
2013-01-08 10:29:00,55.3,47.5,30.39,SE,140,1.0,6.0,75,0.00,,,0.00,Wunderground v.1.15,2013-01-08 15:29:00,
2013-01-08 10:34:00,55.6,47.4,30.39,SE,128,0.0,2.0,74,0.00,,,0.00,Wunderground v.1.15,2013-01-08 15:34:00,
2013-01-08 10:39:00,55.7,47.9,30.39,SSW,200,1.0,3.0,75,0.00,,,0.00,Wunderground v.1.15,2013-01-08 15:39:00,
2013-01-08 10:44:00,56.2,48.4,30.39,ESE,115,0.0,3.0,75,0.00,,,0.00,Wunderground v.1.15,2013-01-08 15:44:00,
2013-01-08 10:49:00,56.3,48.1,30.39,SE,125,2.0,3.0,74,0.00,,,0.00,Wunderground v.1.15,2013-01-08 15:49:00,
2013-01-08 10:54:00,56.3,48.1,30.39,ESE,112,1.0,3.0,74,0.00,,,0.00,Wunderground v.1.15,2013-01-08 15:54:00,
2013-01-08 10:59:00,56.3,48.1,30.39,SSW,197,0.0,3.0,74,0.00,,,0.00,Wunderground v.1.15,2013-01-08 15:59:00,
2013-01-08 11:04:00,56.3,48.5,30.38,South,173,0.0,3.0,75,0.00,,,0.00,Wunderground v.1.15,2013-01-08 16:04:00,
2013-01-08 11:09:00,56.5,49.0,30.38,SE,128,1.0,3.0,76,0.00,,,0.00,Wunderground v.1.15,2013-01-08 16:09:00,
2013-01-08 11:14:00,56.6,49.1,30.38,West,262,0.0,1.0,76,0.00,,,0.00,Wunderground v.1.15,2013-01-08 16:14:00,
2013-01-08 11:19:00,56.7,48.9,30.37,SE,139,2.0,7.0,75,0.00,,,0.00,Wunderground v.1.15,2013-01-08 16:19:00,
2013-01-08 11:24:00,57.0,49.2,30.37,SSW,197,0.0,4.0,75,0.00,,,0.00,Wunderground v.1.15,2013-01-08 16:24:00,
2013-01-08 11:29:00,57.3,49.4,30.37,SE,139,1.0,4.0,75,0.00,,,0.00,Wunderground v.1.15,2013-01-08 16:29:00,
2013-01-08 11:34:00,57.6,49.7,30.37,SSE,153,0.0,2.0,75,0.00,,,0.00,Wunderground v.1.15,2013-01-08 16:34:00,
2013-01-08 11:39:00,58.1,50.2,30.37,WNW,291,0.0,2.0,75,0.00,,,0.00,Wunderground v.1.15,2013-01-08 16:39:00,
2013-01-08 11:44:00,58.4,50.5,30.36,ESE,108,3.0,4.0,75,0.00,,,0.00,Wunderground v.1.15,2013-01-08 16:44:00,
2013-01-08 11:49:00,58.7,50.8,30.36,ESE,112,0.0,4.0,75,0.00,,,0.00,Wunderground v.1.15,2013-01-08 16:49:00,
2013-01-08 11:54:00,59.3,51.0,30.36,West,263,0.0,5.0,74,0.00,,,0.00,Wunderground v.1.15,2013-01-08 16:54:00,
2013-01-08 11:59:00,59.8,51.1,30.36,SE,145,1.0,6.0,73,0.00,,,0.00,Wunderground v.1.15,2013-01-08 16:59:00,
2013-01-08 12:04:00,60.1,51.4,30.36,SSE,154,0.0,2.0,73,0.00,,,0.00,Wunderground v.1.15,2013-01-08 17:04:00,
2013-01-08 12:09:00,60.4,51.7,30.36,SE,125,0.0,3.0,73,0.00,,,0.00,Wunderground v.1.15,2013-01-08 17:09:00,
2013-01-08 12:14:00,60.7,52.0,30.35,NW,321,1.0,3.0,73,0.00,,,0.00,Wunderground v.1.15,2013-01-08 17:14:00,
2013-01-08 12:19:00,61.0,51.9,30.35,South,173,1.0,4.0,72,0.00,,,0.00,Wunderground v.1.15,2013-01-08 17:19:00,
2013-01-08 12:24:00,61.5,52.4,30.35,South,170,0.0,1.0,72,0.00,,,0.00,Wunderground v.1.15,2013-01-08 17:24:00,
2013-01-08 12:29:00,61.8,52.7,30.35,NW,308,0.0,5.0,72,0.00,,,0.00,Wunderground v.1.15,2013-01-08 17:29:00,
2013-01-08 12:34:00,62.0,52.9,30.35,ESE,116,0.0,3.0,72,0.00,,,0.00,Wunderground v.1.15,2013-01-08 17:34:00,
2013-01-08 12:39:00,62.3,53.2,30.35,SSE,152,2.0,3.0,72,0.00,,,0.00,Wunderground v.1.15,2013-01-08 17:39:00,
2013-01-08 12:44:00,62.6,53.4,30.35,SSE,160,0.0,3.0,72,0.00,,,0.00,Wunderground v.1.15,2013-01-08 17:44:00,
2013-01-08 12:49:00,62.9,53.4,30.35,SSW,194,0.0,3.0,71,0.00,,,0.00,Wunderground v.1.15,2013-01-08 17:49:00,
2013-01-08 12:54:00,63.2,54.0,30.35,ESE,115,1.0,3.0,72,0.00,,,0.00,Wunderground v.1.15,2013-01-08 17:54:00,
2013-01-08 12:59:00,63.5,53.5,30.34,SE,137,0.0,3.0,70,0.00,,,0.00,Wunderground v.1.15,2013-01-08 17:59:00,
2013-01-08 13:05:00,63.7,53.3,30.34,West,263,0.0,1.0,69,0.00,,,0.00,Wunderground v.1.15,2013-01-08 18:05:00,
2013-01-08 13:10:00,64.0,53.6,30.34,NE,47,0.0,0.0,69,0.00,,,0.00,Wunderground v.1.15,2013-01-08 18:10:00,
2013-01-08 13:15:00,64.3,53.9,30.33,NNE,23,2.0,2.0,69,0.00,,,0.00,Wunderground v.1.15,2013-01-08 18:15:00,
2013-01-08 13:20:00,64.5,54.1,30.33,WNW,287,0.0,1.0,69,0.00,,,0.00,Wunderground v.1.15,2013-01-08 18:20:00,
2013-01-08 13:25:00,64.7,53.9,30.33,SE,133,2.0,3.0,68,0.00,,,0.00,Wunderground v.1.15,2013-01-08 18:25:00,
2013-01-08 13:30:00,65.0,54.6,30.32,SSE,150,2.0,2.0,69,0.00,,,0.00,Wunderground v.1.15,2013-01-08 18:30:00,
2013-01-08 13:35:00,65.2,54.8,30.32,SSE,157,0.0,6.0,69,0.00,,,0.00,Wunderground v.1.15,2013-01-08 18:35:00,
2013-01-08 13:40:00,65.3,54.5,30.32,WNW,294,0.0,1.0,68,0.00,,,0.00,Wunderground v.1.15,2013-01-08 18:40:00,
2013-01-08 13:45:00,65.3,54.9,30.32,WNW,291,0.0,1.0,69,0.00,,,0.00,Wunderground v.1.15,2013-01-08 18:45:00,
2013-01-08 13:50:00,65.3,54.5,30.32,SE,126,0.0,1.0,68,0.00,,,0.00,Wunderground v.1.15,2013-01-08 18:50:00,
2013-01-08 13:55:00,65.5,55.1,30.32,SSE,147,2.0,2.0,69,0.00,,,0.00,Wunderground v.1.15,2013-01-08 18:55:00,
2013-01-08 14:00:00,65.6,55.2,30.32,SE,135,1.0,1.0,69,0.00,,,0.00,Wunderground v.1.15,2013-01-08 19:00:00,
2013-01-08 14:05:00,65.6,54.8,30.32,ESE,112,0.0,5.0,68,0.00,,,0.00,Wunderground v.1.15,2013-01-08 19:05:00,
2013-01-08 14:10:00,65.6,55.2,30.32,ENE,75,0.0,0.0,69,0.00,,,0.00,Wunderground v.1.15,2013-01-08 19:10:00,
2013-01-08 14:15:00,65.8,55.3,30.32,ENE,75,0.0,0.0,69,0.00,,,0.00,Wunderground v.1.15,2013-01-08 19:15:00,
2013-01-08 14:20:00,66.0,55.1,30.32,SE,136,0.0,0.0,68,0.00,,,0.00,Wunderground v.1.15,2013-01-08 19:20:00,
2013-01-08 14:25:00,66.1,54.8,30.32,WNW,297,0.0,1.0,67,0.00,,,0.00,Wunderground v.1.15,2013-01-08 19:25:00,
2013-01-08 14:30:00,66.1,54.8,30.32,WNW,297,0.0,0.0,67,0.00,,,0.00,Wunderground v.1.15,2013-01-08 19:30:00,
2013-01-08 14:35:00,66.3,55.4,30.32,WNW,297,0.0,0.0,68,0.00,,,0.00,Wunderground v.1.15,2013-01-08 19:35:00,
2013-01-08 14:40:00,66.3,55.0,30.32,SE,132,0.0,1.0,67,0.00,,,0.00,Wunderground v.1.15,2013-01-08 19:40:00,
2013-01-08 14:45:00,66.4,55.1,30.32,SE,132,2.0,4.0,67,0.00,,,0.00,Wunderground v.1.15,2013-01-08 19:45:00,
2013-01-08 14:50:00,66.4,55.1,30.32,East,101,1.0,1.0,67,0.00,,,0.00,Wunderground v.1.15,2013-01-08 19:50:00,
2013-01-08 14:55:00,66.6,55.3,30.32,SE,142,0.0,2.0,67,0.00,,,0.00,Wunderground v.1.15,2013-01-08 19:55:00,
2013-01-08 15:00:00,66.6,55.3,30.31,SE,135,2.0,2.0,67,0.00,,,0.00,Wunderground v.1.15,2013-01-08 20:00:00,
2013-01-08 15:05:00,66.8,55.5,30.31,ESE,111,0.0,5.0,67,0.00,,,0.00,Wunderground v.1.15,2013-01-08 20:05:00,
2013-01-08 15:10:00,66.8,55.9,30.31,South,174,1.0,2.0,68,0.00,,,0.00,Wunderground v.1.15,2013-01-08 20:10:00,
2013-01-08 15:15:00,66.9,56.0,30.32,SSE,157,0.0,2.0,68,0.00,,,0.00,Wunderground v.1.15,2013-01-08 20:15:00,
2013-01-08 15:20:00,67.1,56.2,30.32,East,80,1.0,3.0,68,0.00,,,0.00,Wunderground v.1.15,2013-01-08 20:20:00,
2013-01-08 15:25:00,67.3,56.8,30.32,East,85,0.0,3.0,69,0.00,,,0.00,Wunderground v.1.15,2013-01-08 20:25:00,
2013-01-08 15:31:00,67.4,57.3,30.31,ESE,111,0.0,2.0,70,0.00,,,0.00,Wunderground v.1.15,2013-01-08 20:31:00,
2013-01-08 15:36:00,67.6,57.5,30.31,ESE,102,0.0,2.0,70,0.00,,,0.00,Wunderground v.1.15,2013-01-08 20:36:00,
2013-01-08 15:41:00,67.8,57.7,30.31,SE,126,0.0,1.0,70,0.00,,,0.00,Wunderground v.1.15,2013-01-08 20:41:00,
2013-01-08 15:46:00,67.9,57.4,30.31,SSE,154,2.0,5.0,69,0.00,,,0.00,Wunderground v.1.15,2013-01-08 20:46:00,
2013-01-08 15:51:00,67.9,57.4,30.31,East,87,2.0,3.0,69,0.00,,,0.00,Wunderground v.1.15,2013-01-08 20:51:00,
2013-01-08 15:56:00,67.8,57.3,30.31,SE,143,3.0,6.0,69,0.00,,,0.00,Wunderground v.1.15,2013-01-08 20:56:00,
2013-01-08 16:01:00,67.8,57.3,30.31,SSE,163,3.0,3.0,69,0.00,,,0.00,Wunderground v.1.15,2013-01-08 21:01:00,
2013-01-08 16:06:00,67.8,57.3,30.31,ENE,78,1.0,6.0,69,0.00,,,0.00,Wunderground v.1.15,2013-01-08 21:06:00,
2013-01-08 16:11:00,67.8,57.3,30.31,SSE,160,2.0,5.0,69,0.00,,,0.00,Wunderground v.1.15,2013-01-08 21:11:00,
2013-01-08 16:16:00,67.6,56.7,30.31,SE,126,2.0,5.0,68,0.00,,,0.00,Wunderground v.1.15,2013-01-08 21:16:00,
2013-01-08 16:21:00,67.4,56.9,30.31,ESE,123,0.0,1.0,69,0.00,,,0.00,Wunderground v.1.15,2013-01-08 21:21:00,
2013-01-08 16:26:00,67.3,56.8,30.31,SE,142,0.0,3.0,69,0.00,,,0.00,Wunderground v.1.15,2013-01-08 21:26:00,
2013-01-08 16:31:00,67.1,57.0,30.31,SE,142,0.0,0.0,70,0.00,,,0.00,Wunderground v.1.15,2013-01-08 21:31:00,
2013-01-08 16:37:00,66.9,56.8,30.31,SE,142,0.0,1.0,70,0.00,,,0.00,Wunderground v.1.15,2013-01-08 21:37:00,
2013-01-08 16:43:00,66.6,56.9,30.31,SE,142,0.0,0.0,71,0.00,,,0.00,Wunderground v.1.15,2013-01-08 21:43:00,
2013-01-08 16:48:00,66.4,56.7,30.31,SE,142,0.0,1.0,71,0.00,,,0.00,Wunderground v.1.15,2013-01-08 21:48:00,
2013-01-08 16:53:00,66.1,56.8,30.31,SE,142,0.0,0.0,72,0.00,,,0.00,Wunderground v.1.15,2013-01-08 21:53:00,
2013-01-08 16:59:00,66.0,56.7,30.31,SE,142,0.0,0.0,72,0.00,,,0.00,Wunderground v.1.15,2013-01-08 21:59:00,
2013-01-08 17:04:00,65.6,56.7,30.32,SE,142,0.0,1.0,73,0.00,,,0.00,Wunderground v.1.15,2013-01-08 22:04:00,
2013-01-08 17:10:00,65.3,56.8,30.32,SSE,152,0.0,1.0,74,0.00,,,0.00,Wunderground v.1.15,2013-01-08 22:10:00,
2013-01-08 17:15:00,65.0,56.5,30.32,SE,142,0.0,1.0,74,0.00,,,0.00,Wunderground v.1.15,2013-01-08 22:15:00,
2013-01-08 17:20:00,64.7,56.2,30.32,South,183,0.0,1.0,74,0.00,,,0.00,Wunderground v.1.15,2013-01-08 22:20:00,
2013-01-08 17:25:00,64.2,56.1,30.32,NNW,329,0.0,1.0,75,0.00,,,0.00,Wunderground v.1.15,2013-01-08 22:25:00,
2013-01-08 17:30:00,63.9,55.8,30.32,ESE,112,0.0,0.0,75,0.00,,,0.00,Wunderground v.1.15,2013-01-08 22:30:00,
2013-01-08 17:35:00,63.5,55.8,30.32,ENE,63,1.0,3.0,76,0.00,,,0.00,Wunderground v.1.15,2013-01-08 22:35:00,
2013-01-08 17:41:00,63.2,55.5,30.32,ENE,65,1.0,1.0,76,0.00,,,0.00,Wunderground v.1.15,2013-01-08 22:41:00,
2013-01-08 17:46:00,63.1,55.8,30.32,ENE,68,0.0,1.0,77,0.00,,,0.00,Wunderground v.1.15,2013-01-08 22:46:00,
2013-01-08 17:51:00,62.7,55.4,30.32,ENE,68,0.0,0.0,77,0.00,,,0.00,Wunderground v.1.15,2013-01-08 22:51:00,
2013-01-08 17:56:00,62.4,55.4,30.32,ESE,109,0.0,1.0,78,0.00,,,0.00,Wunderground v.1.15,2013-01-08 22:56:00,
2013-01-08 18:01:00,62.1,55.5,30.32,ESE,109,0.0,0.0,79,0.00,,,0.00,Wunderground v.1.15,2013-01-08 23:01:00,
2013-01-08 18:06:00,62.0,55.4,30.32,ESE,109,0.0,0.0,79,0.00,,,0.00,Wunderground v.1.15,2013-01-08 23:06:00,
2013-01-08 18:12:00,61.6,55.4,30.32,ESE,109,0.0,0.0,80,0.00,,,0.00,Wunderground v.1.15,2013-01-08 23:12:00,
2013-01-08 18:17:00,61.3,55.1,30.33,ESE,109,0.0,0.0,80,0.00,,,0.00,Wunderground v.1.15,2013-01-08 23:17:00,
2013-01-08 18:23:00,61.0,54.8,30.33,ESE,109,0.0,0.0,80,0.00,,,0.00,Wunderground v.1.15,2013-01-08 23:23:00,
2013-01-08 18:28:00,60.7,54.8,30.33,ESE,109,0.0,0.0,81,0.00,,,0.00,Wunderground v.1.15,2013-01-08 23:28:00,
2013-01-08 18:33:00,60.4,54.9,30.33,ESE,109,0.0,0.0,82,0.00,,,0.00,Wunderground v.1.15,2013-01-08 23:33:00,
2013-01-08 18:39:00,60.1,54.6,30.33,ESE,109,0.0,0.0,82,0.00,,,0.00,Wunderground v.1.15,2013-01-08 23:39:00,
2013-01-08 18:44:00,59.8,54.6,30.33,ESE,109,0.0,0.0,83,0.00,,,0.00,Wunderground v.1.15,2013-01-08 23:44:00,
2013-01-08 18:50:00,59.5,54.3,30.33,ESE,109,0.0,0.0,83,0.00,,,0.00,Wunderground v.1.15,2013-01-08 23:50:00,
2013-01-08 18:55:00,59.3,54.5,30.33,ESE,109,0.0,0.0,84,0.00,,,0.00,Wunderground v.1.15,2013-01-08 23:55:00,
2013-01-08 19:01:00,59.0,54.2,30.34,ESE,109,0.0,0.0,84,0.00,,,0.00,Wunderground v.1.15,2013-01-09 00:01:00,
2013-01-08 19:06:00,58.7,54.2,30.34,ESE,109,0.0,0.0,85,0.00,,,0.00,Wunderground v.1.15,2013-01-09 00:06:00,
2013-01-08 19:11:00,58.6,54.1,30.34,ESE,109,0.0,0.0,85,0.00,,,0.00,Wunderground v.1.15,2013-01-09 00:11:00,
2013-01-08 19:17:00,58.4,53.9,30.34,ESE,109,0.0,0.0,85,0.00,,,0.00,Wunderground v.1.15,2013-01-09 00:17:00,
2013-01-08 19:22:00,58.1,53.9,30.34,ESE,109,0.0,0.0,86,0.00,,,0.00,Wunderground v.1.15,2013-01-09 00:22:00,
2013-01-08 19:27:00,58.0,53.8,30.34,ESE,109,0.0,0.0,86,0.00,,,0.00,Wunderground v.1.15,2013-01-09 00:27:00,
2013-01-08 19:30:00,57.8,53.6,30.35,N/A,-737280,0.0,-999.0,86,0.00,,,0.00,Wunderground v.1.15,2013-01-09 00:30:00,
2013-01-08 19:35:00,57.8,53.6,30.35,N/A,-737280,0.0,-999.0,86,0.00,,,0.00,Wunderground v.1.15,2013-01-09 00:35:00,
2013-01-08 19:40:00,57.3,53.5,30.35,N/A,-737280,0.0,-999.0,87,0.00,,,0.00,Wunderground v.1.15,2013-01-09 00:40:00,
2013-01-08 19:45:00,57.3,53.5,30.35,N/A,-737280,0.0,-999.0,87,0.00,,,0.00,Wunderground v.1.15,2013-01-09 00:45:00,
2013-01-08 19:50:00,57.3,53.5,30.35,N/A,-737280,0.0,-999.0,87,0.00,,,0.00,Wunderground v.1.15,2013-01-09 00:50:00,
2013-01-08 19:55:00,56.9,53.4,30.35,N/A,-737280,0.0,-999.0,88,0.00,,,0.00,Wunderground v.1.15,2013-01-09 00:55:00,
2013-01-08 20:00:00,56.9,53.4,30.35,N/A,-737280,0.0,-999.0,88,0.00,,,0.00,Wunderground v.1.15,2013-01-09 01:00:00,
2013-01-08 20:05:00,56.9,53.4,30.35,N/A,-737280,0.0,-999.0,88,0.00,,,0.00,Wunderground v.1.15,2013-01-09 01:05:00,
2013-01-08 20:10:00,56.5,53.0,30.35,N/A,-737280,0.0,-999.0,88,0.00,,,0.00,Wunderground v.1.15,2013-01-09 01:10:00,
2013-01-08 20:19:00,56.3,53.1,30.35,ESE,109,0.0,0.0,89,0.00,,,0.00,Wunderground v.1.15,2013-01-09 01:19:00,
2013-01-08 20:25:00,56.3,53.1,30.35,ESE,109,0.0,0.0,89,0.00,,,0.00,Wunderground v.1.15,2013-01-09 01:25:00,
2013-01-08 20:30:00,56.2,53.0,30.35,ESE,109,0.0,0.0,89,0.00,,,0.00,Wunderground v.1.15,2013-01-09 01:30:00,
2013-01-08 20:35:00,56.0,52.8,30.35,ESE,109,0.0,0.0,89,0.00,,,0.00,Wunderground v.1.15,2013-01-09 01:35:00,
2013-01-08 20:40:00,56.0,52.8,30.35,ESE,109,0.0,0.0,89,0.00,,,0.00,Wunderground v.1.15,2013-01-09 01:40:00,
2013-01-08 20:45:00,55.9,52.7,30.35,ESE,111,0.0,0.0,89,0.00,,,0.00,Wunderground v.1.15,2013-01-09 01:45:00,
2013-01-08 20:50:00,55.7,52.5,30.35,ESE,111,0.0,0.0,89,0.00,,,0.00,Wunderground v.1.15,2013-01-09 01:50:00,
2013-01-08 20:55:00,55.7,52.8,30.35,ESE,111,0.0,0.0,90,0.00,,,0.00,Wunderground v.1.15,2013-01-09 01:55:00,
2013-01-08 21:00:00,55.6,52.7,30.35,ESE,111,0.0,0.0,90,0.00,,,0.00,Wunderground v.1.15,2013-01-09 02:00:00,
2013-01-08 21:05:00,55.6,52.7,30.35,ESE,111,0.0,0.0,90,0.00,,,0.00,Wunderground v.1.15,2013-01-09 02:05:00,
2013-01-08 21:10:00,55.4,52.5,30.35,ESE,111,0.0,0.0,90,0.00,,,0.00,Wunderground v.1.15,2013-01-09 02:10:00,
2013-01-08 21:15:00,55.4,52.5,30.35,ESE,111,0.0,0.0,90,0.00,,,0.00,Wunderground v.1.15,2013-01-09 02:15:00,
2013-01-08 21:20:00,55.3,52.4,30.35,ESE,111,0.0,0.0,90,0.00,,,0.00,Wunderground v.1.15,2013-01-09 02:20:00,
2013-01-08 21:25:00,55.3,52.4,30.35,ESE,111,0.0,0.0,90,0.00,,,0.00,Wunderground v.1.15,2013-01-09 02:25:00,
2013-01-08 21:30:00,55.1,52.2,30.35,ESE,111,0.0,0.0,90,0.00,,,0.00,Wunderground v.1.15,2013-01-09 02:30:00,
2013-01-08 21:35:00,55.1,52.5,30.35,ESE,111,0.0,0.0,91,0.00,,,0.00,Wunderground v.1.15,2013-01-09 02:35:00,
2013-01-08 21:40:00,55.0,52.4,30.35,ESE,111,0.0,0.0,91,0.00,,,0.00,Wunderground v.1.15,2013-01-09 02:40:00,
2013-01-08 21:45:00,55.0,52.4,30.35,ESE,111,0.0,0.0,91,0.00,,,0.00,Wunderground v.1.15,2013-01-09 02:45:00,
2013-01-08 21:50:00,55.0,52.4,30.35,ESE,111,0.0,0.0,91,0.00,,,0.00,Wunderground v.1.15,2013-01-09 02:50:00,
2013-01-08 21:55:00,54.8,52.2,30.35,ESE,111,0.0,0.0,91,0.00,,,0.00,Wunderground v.1.15,2013-01-09 02:55:00,
2013-01-08 22:01:00,54.8,52.2,30.35,ESE,111,0.0,0.0,91,0.00,,,0.00,Wunderground v.1.15,2013-01-09 03:01:00,
2013-01-08 22:06:00,54.8,52.2,30.35,ESE,111,0.0,0.0,91,0.00,,,0.00,Wunderground v.1.15,2013-01-09 03:06:00,
2013-01-08 22:11:00,54.7,52.4,30.35,ESE,112,0.0,0.0,92,0.00,,,0.00,Wunderground v.1.15,2013-01-09 03:11:00,
2013-01-08 22:16:00,54.8,52.5,30.35,ESE,112,0.0,0.0,92,0.00,,,0.00,Wunderground v.1.15,2013-01-09 03:16:00,
2013-01-08 22:21:00,54.8,52.5,30.35,ESE,112,0.0,0.0,92,0.00,,,0.00,Wunderground v.1.15,2013-01-09 03:21:00,
2013-01-08 22:26:00,54.7,52.1,30.35,ESE,112,0.0,0.0,91,0.00,,,0.00,Wunderground v.1.15,2013-01-09 03:26:00,
2013-01-08 22:31:00,54.7,52.1,30.35,ESE,112,0.0,0.0,91,0.00,,,0.00,Wunderground v.1.15,2013-01-09 03:31:00,
2013-01-08 22:36:00,54.7,52.1,30.35,ESE,112,0.0,0.0,91,0.00,,,0.00,Wunderground v.1.15,2013-01-09 03:36:00,
2013-01-08 22:41:00,54.7,52.1,30.35,ESE,112,0.0,0.0,91,0.00,,,0.00,Wunderground v.1.15,2013-01-09 03:41:00,
2013-01-08 22:46:00,54.5,51.9,30.36,ESE,112,0.0,0.0,91,0.00,,,0.00,Wunderground v.1.15,2013-01-09 03:46:00,
2013-01-08 22:51:00,54.5,51.9,30.36,ESE,112,0.0,0.0,91,0.00,,,0.00,Wunderground v.1.15,2013-01-09 03:51:00,
2013-01-08 22:56:00,54.4,51.8,30.36,ESE,112,0.0,0.0,91,0.00,,,0.00,Wunderground v.1.15,2013-01-09 03:56:00,
2013-01-08 23:01:00,54.4,52.1,30.36,ESE,112,0.0,0.0,92,0.00,,,0.00,Wunderground v.1.15,2013-01-09 04:01:00,
2013-01-08 23:06:00,54.2,51.9,30.36,ESE,112,0.0,0.0,92,0.00,,,0.00,Wunderground v.1.15,2013-01-09 04:06:00,
2013-01-08 23:11:00,54.2,51.9,30.36,ESE,112,0.0,0.0,92,0.00,,,0.00,Wunderground v.1.15,2013-01-09 04:11:00,
2013-01-08 23:16:00,54.2,51.9,30.36,ESE,112,0.0,0.0,92,0.00,,,0.00,Wunderground v.1.15,2013-01-09 04:16:00,
2013-01-08 23:21:00,54.2,51.9,30.36,ESE,112,0.0,0.0,92,0.00,,,0.00,Wunderground v.1.15,2013-01-09 04:21:00,
2013-01-08 23:26:00,54.2,51.9,30.36,ESE,112,0.0,0.0,92,0.00,,,0.00,Wunderground v.1.15,2013-01-09 04:26:00,
2013-01-08 23:32:00,54.2,51.9,30.35,ESE,112,0.0,0.0,92,0.00,,,0.00,Wunderground v.1.15,2013-01-09 04:32:00,
2013-01-08 23:37:00,54.4,52.1,30.35,ESE,112,0.0,0.0,92,0.00,,,0.00,Wunderground v.1.15,2013-01-09 04:37:00,
2013-01-08 23:42:00,54.4,52.1,30.35,ESE,112,0.0,0.0,92,0.00,,,0.00,Wunderground v.1.15,2013-01-09 04:42:00,
2013-01-08 23:47:00,54.4,52.1,30.35,ESE,112,0.0,0.0,92,0.00,,,0.00,Wunderground v.1.15,2013-01-09 04:47:00,
2013-01-08 23:52:00,54.4,52.1,30.35,ESE,112,0.0,0.0,92,0.00,,,0.00,Wunderground v.1.15,2013-01-09 04:52:00,
2013-01-08 23:57:00,54.5,52.2,30.35,ESE,112,0.0,0.0,92,0.00,,,0.00,Wunderground v.1.15,2013-01-09 04:57:00,